Weather in Vykhodnoy

Russia / Murmansk Oblast     68°50′13″N   33°04′46″E
temp.,
°C
wind,
m/s
gust,
m/s
humid.,
%
clouds,
%
prec.,
mm/h
press.,
hPa
HPBL,
m
26 january, tue
tue2600:00−13ne119698 0.0 100720
03:00−12ene129699 0.1 100927
06:00−9e31093100 0.1 1010412
09:00−9e41290100 0.1 1011500
12:00−9ese51294100 1.3 1011615
15:00−9ese51294100 3.1 1011617
18:00−11ese51294100 1.2 1011501
21:00−12e4895100 2.2 1011359
27 january, wed
wed2700:00−14e379599 0.6 1011264
03:00−16e369391 0.6 1012204
06:00−17e279470 0.0 1013176
09:00−17e259486 0.0 1012138
12:00−16ene1397100 0.0 101355
15:00−12ene3129299 0.1 1013668
18:00−12ene31293100 0.0 1012628
21:00−12ene31193100 0.1 1013576
28 january, thu
thu2800:00−12ene31094100 0.0 1013402
03:00−12ene31093100 0.0 1014406
06:00−13e2993100 0.0 1015290
09:00−14e2593100 0.0 1017111
12:00−14e2492100 0.0 1018112
15:00−16e2392100 0.0 102064
18:00−18e2692100 0.0 1020146
21:00−18e2989100 0.0 1021270
29 january, fri
fri2900:00−19e2879100 0.0 1021209
03:00−20e2381100 0.0 1020110
06:00−19e1285100 0.0 101960
09:00−19e1389100 0.0 1018204
12:00−19ese1297100 0.3 1018161
15:00−19se1198100 0.3 1017113
18:00−19ese1198100 0.2 101659
21:00−18e1198100 0.5 101457
30 january, sat
sat3000:00−19e1196100 0.0 101320
03:00−18ene1198100 0.1 101231
06:00−17ene1197100 0.4 101060
09:00−16ne0097100 0.8 100964
12:00−15ene0096100 0.7 100870
15:00−14ne0097100 1.3 100768
18:00−14e0097100 0.6 100736
21:00−14ene1197100 0.9 100620